Location: Béaulencourt
(50.0796°N, 2.8795°E)
Time: 20:27:23
(UTC+00:00)

Lacrosse 5 rocket - Pass Details

Date: 20 January 2026
Orbit: 401 x 481 km, 57.0° (Epoch: 16 February)

Event Time Altitude Azimuth Distance (km) Brightness Sun altitude
Exits shadow 04:06:36 12° 56° (NE) 1,558 4.3 -33.3°
Drops below altitude 10° 04:06:58 10° 59° (ENE) 1,683 4.5 -33.2°
Sets 04:09:22 0° 72° (ENE) 2,565 5.8 -32.8°
